Time,TemperatureF,DewpointF,PressureIn,WindDirection,WindDirectionDegrees,WindSpeedMPH,WindSpeedGustMPH,Humidity,HourlyPrecipIn,Conditions,Clouds,dailyrainin,SoftwareType,DateUTC
2013-01-02 00:00:00,35.2,29.7,30.31,NNE,26,0.0,1.0,80,0.00,,CLR,0.00,VWS V14.01,2013-01-02 06:00:00,
2013-01-02 00:01:00,35.2,29.7,30.30,NNE,26,1.0,1.0,80,0.00,,OVC020,0.00,VWS V14.01,2013-01-02 06:01:00,
2013-01-02 00:05:00,35.2,29.7,30.31,NNE,13,0.0,3.0,80,0.00,,CLR,0.00,VWS V14.01,2013-01-02 06:05:00,
2013-01-02 00:06:00,35.1,29.6,30.30,NNE,13,0.0,0.0,80,0.00,,OVC020,0.00,VWS V14.01,2013-01-02 06:06:00,
2013-01-02 00:10:00,35.2,29.7,30.31,NNW,342,0.0,1.0,80,0.00,,CLR,0.00,VWS V14.01,2013-01-02 06:10:00,
2013-01-02 00:11:00,35.1,29.6,30.31,WNW,291,0.0,0.0,80,0.00,,OVC020,0.00,VWS V14.01,2013-01-02 06:11:00,
2013-01-02 00:15:00,35.2,29.7,30.31,NNW,333,1.0,2.0,80,0.00,,CLR,0.00,VWS V14.01,2013-01-02 06:15:00,
2013-01-02 00:16:00,35.2,29.7,30.31,NNW,338,1.0,1.0,80,0.00,,OVC020,0.00,VWS V14.01,2013-01-02 06:16:00,
2013-01-02 00:20:00,35.2,29.7,30.31,NW,317,0.0,1.0,80,0.00,,CLR,0.00,VWS V14.01,2013-01-02 06:20:00,
2013-01-02 00:21:00,35.2,29.7,30.31,NNW,327,0.0,1.0,80,0.00,,OVC020,0.00,VWS V14.01,2013-01-02 06:21:00,
2013-01-02 00:25:00,35.2,29.7,30.31,NNW,348,1.0,3.0,80,0.00,,CLR,0.00,VWS V14.01,2013-01-02 06:25:00,
2013-01-02 00:26:00,35.2,29.7,30.31,NNE,24,1.0,1.0,80,0.00,,OVC020,0.00,VWS V14.01,2013-01-02 06:26:00,
2013-01-02 00:30:00,35.2,29.7,30.31,NNW,344,0.0,2.0,80,0.00,,CLR,0.00,VWS V14.01,2013-01-02 06:30:00,
2013-01-02 00:31:00,35.2,29.7,30.31,NNW,346,2.0,3.0,80,0.00,,OVC020,0.00,VWS V14.01,2013-01-02 06:31:00,
2013-01-02 00:35:00,35.2,29.7,30.31,NW,313,0.0,3.0,80,0.00,,CLR,0.00,VWS V14.01,2013-01-02 06:35:00,
2013-01-02 00:36:00,35.2,29.7,30.31,WSW,253,0.0,0.0,80,0.00,,OVC020,0.00,VWS V14.01,2013-01-02 06:36:00,
2013-01-02 00:40:00,35.1,29.6,30.30,ESE,110,0.0,1.0,80,0.00,,CLR,0.00,VWS V14.01,2013-01-02 06:40:00,
2013-01-02 00:41:00,35.2,29.7,30.30,ESE,110,0.0,0.0,80,0.00,,OVC020,0.00,VWS V14.01,2013-01-02 06:41:00,
2013-01-02 00:45:00,35.1,29.6,30.30,NNE,27,0.0,4.0,80,0.00,,CLR,0.00,VWS V14.01,2013-01-02 06:45:00,
2013-01-02 00:46:00,35.1,29.6,30.30,NE,49,0.0,1.0,80,0.00,,OVC020,0.00,VWS V14.01,2013-01-02 06:46:00,
2013-01-02 00:50:00,35.0,29.5,30.30,NNW,343,1.0,3.0,80,0.00,,CLR,0.00,VWS V14.01,2013-01-02 06:50:00,
2013-01-02 00:51:00,35.0,29.5,30.30,NNE,22,1.0,2.0,80,0.00,,OVC020,0.00,VWS V14.01,2013-01-02 06:51:00,
2013-01-02 00:55:00,34.9,29.4,30.30,WNW,298,0.0,4.0,80,0.00,,CLR,0.00,VWS V14.01,2013-01-02 06:55:00,
2013-01-02 00:56:00,34.9,29.4,30.30,NNE,31,3.0,3.0,80,0.00,,OVC020,0.00,VWS V14.01,2013-01-02 06:56:00,
2013-01-02 01:00:00,34.9,29.4,30.30,ENE,67,1.0,6.0,80,0.00,,CLR,0.00,VWS V14.01,2013-01-02 07:00:00,
2013-01-02 01:01:00,34.9,29.4,30.30,NE,36,0.0,1.0,80,0.00,,OVC020,0.00,VWS V14.01,2013-01-02 07:01:00,
2013-01-02 01:05:00,34.8,29.3,30.30,NNW,331,1.0,3.0,80,0.00,,CLR,0.00,VWS V14.01,2013-01-02 07:05:00,
2013-01-02 01:06:00,34.8,29.3,30.30,NNE,29,1.0,1.0,80,0.00,,OVC020,0.00,VWS V14.01,2013-01-02 07:06:00,
2013-01-02 01:10:00,34.8,29.3,30.30,NW,317,0.0,3.0,80,0.00,,CLR,0.00,VWS V14.01,2013-01-02 07:10:00,
2013-01-02 01:11:00,34.7,29.2,30.30,NE,34,2.0,2.0,80,0.00,,OVC020,0.00,VWS V14.01,2013-01-02 07:11:00,
2013-01-02 01:15:00,34.7,29.2,30.30,NNW,344,0.0,2.0,80,0.00,,CLR,0.00,VWS V14.01,2013-01-02 07:15:00,
2013-01-02 01:17:00,34.7,29.2,30.30,NNW,344,1.0,1.0,80,0.00,,OVC020,0.00,VWS V14.01,2013-01-02 07:17:00,
2013-01-02 01:20:00,34.7,29.5,30.30,NNW,335,1.0,1.0,81,0.00,,CLR,0.00,VWS V14.01,2013-01-02 07:20:00,
2013-01-02 01:22:00,34.7,29.5,30.30,North,349,0.0,1.0,81,0.00,,OVC020,0.00,VWS V14.01,2013-01-02 07:22:00,
2013-01-02 01:25:00,34.7,29.2,30.30,NE,35,2.0,3.0,80,0.00,,CLR,0.00,VWS V14.01,2013-01-02 07:25:00,
2013-01-02 01:27:00,34.6,29.1,30.30,NNE,28,0.0,2.0,80,0.00,,OVC020,0.00,VWS V14.01,2013-01-02 07:27:00,
2013-01-02 01:30:00,34.6,29.4,30.30,NNW,337,0.0,2.0,81,0.00,,CLR,0.00,VWS V14.01,2013-01-02 07:30:00,
2013-01-02 01:32:00,34.6,29.4,30.30,NNE,26,0.0,1.0,81,0.00,,OVC020,0.00,VWS V14.01,2013-01-02 07:32:00,
2013-01-02 01:35:00,34.7,29.5,30.30,West,277,0.0,1.0,81,0.00,,CLR,0.00,VWS V14.01,2013-01-02 07:35:00,
2013-01-02 01:37:00,34.6,29.4,30.30,WNW,283,0.0,0.0,81,0.00,,OVC020,0.00,VWS V14.01,2013-01-02 07:37:00,
2013-01-02 01:40:00,34.5,29.0,30.31,NNE,24,0.0,4.0,80,0.00,,CLR,0.00,VWS V14.01,2013-01-02 07:40:00,
2013-01-02 01:42:00,34.5,29.0,30.30,NNE,16,1.0,2.0,80,0.00,,OVC020,0.00,VWS V14.01,2013-01-02 07:42:00,
2013-01-02 01:45:00,34.4,29.2,30.30,NNE,31,0.0,2.0,81,0.00,,CLR,0.00,VWS V14.01,2013-01-02 07:45:00,
2013-01-02 01:47:00,34.4,29.2,30.31,NNE,16,0.0,0.0,81,0.00,,OVC020,0.00,VWS V14.01,2013-01-02 07:47:00,
2013-01-02 01:50:00,34.4,28.9,30.31,NE,42,1.0,3.0,80,0.00,,CLR,0.00,VWS V14.01,2013-01-02 07:50:00,
2013-01-02 01:52:00,34.4,28.9,30.31,North,360,2.0,4.0,80,0.00,,OVC020,0.00,VWS V14.01,2013-01-02 07:52:00,
2013-01-02 01:55:00,34.3,28.8,30.31,NNW,330,1.0,4.0,80,0.00,,CLR,0.00,VWS V14.01,2013-01-02 07:55:00,
2013-01-02 01:57:00,34.3,28.8,30.31,NNE,31,3.0,3.0,80,0.00,,OVC020,0.00,VWS V14.01,2013-01-02 07:57:00,
2013-01-02 02:00:00,34.2,28.7,30.31,NNW,331,0.0,4.0,80,0.00,,CLR,0.00,VWS V14.01,2013-01-02 08:00:00,
2013-01-02 02:02:00,34.1,28.6,30.31,NNW,345,0.0,1.0,80,0.00,,OVC020,0.00,VWS V14.01,2013-01-02 08:02:00,
2013-01-02 02:05:00,34.1,28.6,30.31,North,350,0.0,3.0,80,0.00,,CLR,0.00,VWS V14.01,2013-01-02 08:05:00,
2013-01-02 02:07:00,34.1,28.6,30.31,NNE,33,0.0,2.0,80,0.00,,OVC020,0.00,VWS V14.01,2013-01-02 08:07:00,
2013-01-02 02:10:00,34.0,28.5,30.31,NE,36,1.0,4.0,80,0.00,,CLR,0.00,VWS V14.01,2013-01-02 08:10:00,
2013-01-02 02:12:00,34.0,28.5,30.31,North,355,2.0,3.0,80,0.00,,OVC020,0.00,VWS V14.01,2013-01-02 08:12:00,
2013-01-02 02:15:00,33.9,28.4,30.31,NNW,346,0.0,3.0,80,0.00,,CLR,0.00,VWS V14.01,2013-01-02 08:15:00,
2013-01-02 02:17:00,33.9,28.7,30.31,NNW,337,1.0,2.0,81,0.00,,OVC020,0.00,VWS V14.01,2013-01-02 08:17:00,
2013-01-02 02:20:00,33.8,28.6,30.31,NNW,340,1.0,5.0,81,0.00,,CLR,0.00,VWS V14.01,2013-01-02 08:20:00,
2013-01-02 02:22:00,33.7,28.5,30.31,NNE,29,0.0,5.0,81,0.00,,OVC020,0.00,VWS V14.01,2013-01-02 08:22:00,
2013-01-02 02:25:00,33.7,28.5,30.31,NNE,13,1.0,5.0,81,0.00,,CLR,0.00,VWS V14.01,2013-01-02 08:25:00,
2013-01-02 02:27:00,33.6,28.4,30.31,NW,320,0.0,2.0,81,0.00,,OVC020,0.00,VWS V14.01,2013-01-02 08:27:00,
2013-01-02 02:30:00,33.5,28.3,30.32,NNW,344,1.0,2.0,81,0.00,,CLR,0.00,VWS V14.01,2013-01-02 08:30:00,
2013-01-02 02:32:00,33.5,28.3,30.31,NNE,32,0.0,1.0,81,0.00,,OVC020,0.00,VWS V14.01,2013-01-02 08:32:00,
2013-01-02 02:35:00,33.3,28.1,30.31,NNW,337,1.0,2.0,81,0.00,,CLR,0.00,VWS V14.01,2013-01-02 08:35:00,
2013-01-02 02:37:00,33.3,28.1,30.31,NNW,333,0.0,2.0,81,0.00,,OVC020,0.00,VWS V14.01,2013-01-02 08:37:00,
2013-01-02 02:40:00,33.2,28.3,30.31,NNW,348,2.0,3.0,82,0.00,,CLR,0.00,VWS V14.01,2013-01-02 08:40:00,
2013-01-02 02:42:00,33.2,28.0,30.31,NNW,340,0.0,4.0,81,0.00,,OVC020,0.00,VWS V14.01,2013-01-02 08:42:00,
2013-01-02 02:45:00,33.1,27.9,30.32,NNW,327,1.0,6.0,81,0.00,,CLR,0.00,VWS V14.01,2013-01-02 08:45:00,
2013-01-02 02:47:00,33.1,27.9,30.32,NW,325,0.0,3.0,81,0.00,,OVC020,0.00,VWS V14.01,2013-01-02 08:47:00,
2013-01-02 02:50:00,33.0,27.8,30.32,NNE,28,0.0,4.0,81,0.00,,CLR,0.00,VWS V14.01,2013-01-02 08:50:00,
2013-01-02 02:52:00,33.0,27.8,30.32,NNE,28,0.0,3.0,81,0.00,,OVC020,0.00,VWS V14.01,2013-01-02 08:52:00,
2013-01-02 02:55:00,33.0,27.8,30.31,NNE,12,1.0,4.0,81,0.00,,CLR,0.00,VWS V14.01,2013-01-02 08:55:00,
2013-01-02 02:57:00,33.0,27.8,30.32,NW,311,0.0,3.0,81,0.00,,OVC020,0.00,VWS V14.01,2013-01-02 08:57:00,
2013-01-02 03:00:00,32.9,27.7,30.31,NNW,347,0.0,3.0,81,0.00,,CLR,0.00,VWS V14.01,2013-01-02 09:00:00,
2013-01-02 03:02:00,32.9,27.7,30.31,North,351,2.0,2.0,81,0.00,,OVC230,0.00,VWS V14.01,2013-01-02 09:02:00,
2013-01-02 03:05:00,32.9,27.7,30.32,NNE,22,2.0,4.0,81,0.00,,CLR,0.00,VWS V14.01,2013-01-02 09:05:00,
2013-01-02 03:07:00,32.9,27.7,30.32,NNW,327,1.0,2.0,81,0.00,,OVC230,0.00,VWS V14.01,2013-01-02 09:07:00,
2013-01-02 03:10:00,32.8,27.6,30.32,NW,319,1.0,4.0,81,0.00,,CLR,0.00,VWS V14.01,2013-01-02 09:10:00,
2013-01-02 03:12:00,32.8,27.6,30.32,NNW,336,1.0,3.0,81,0.00,,OVC230,0.00,VWS V14.01,2013-01-02 09:12:00,
2013-01-02 03:15:00,32.7,27.5,30.32,NNE,22,0.0,3.0,81,0.00,,CLR,0.00,VWS V14.01,2013-01-02 09:15:00,
2013-01-02 03:17:00,32.7,27.8,30.32,NNE,16,2.0,5.0,82,0.00,,OVC230,0.00,VWS V14.01,2013-01-02 09:17:00,
2013-01-02 03:20:00,32.6,27.7,30.32,North,350,1.0,5.0,82,0.00,,CLR,0.00,VWS V14.01,2013-01-02 09:20:00,
2013-01-02 03:22:00,32.6,27.7,30.31,NE,38,4.0,4.0,82,0.00,,OVC230,0.00,VWS V14.01,2013-01-02 09:22:00,
2013-01-02 03:25:00,32.6,27.7,30.31,NNE,27,0.0,4.0,82,0.00,,CLR,0.00,VWS V14.01,2013-01-02 09:25:00,
2013-01-02 03:27:00,32.6,27.7,30.31,NNE,12,1.0,3.0,82,0.00,,OVC230,0.00,VWS V14.01,2013-01-02 09:27:00,
2013-01-02 03:30:00,32.5,27.6,30.31,NW,306,0.0,3.0,82,0.00,,CLR,0.00,VWS V14.01,2013-01-02 09:30:00,
2013-01-02 03:32:00,32.5,27.6,30.31,NNW,327,1.0,5.0,82,0.00,,OVC230,0.00,VWS V14.01,2013-01-02 09:32:00,
2013-01-02 03:35:00,32.5,27.6,30.31,West,275,0.0,5.0,82,0.00,,CLR,0.00,VWS V14.01,2013-01-02 09:35:00,
2013-01-02 03:37:00,32.5,27.6,30.31,NNW,331,0.0,2.0,82,0.00,,OVC230,0.00,VWS V14.01,2013-01-02 09:37:00,
2013-01-02 03:40:00,32.5,27.6,30.31,WNW,296,0.0,2.0,82,0.00,,CLR,0.00,VWS V14.01,2013-01-02 09:40:00,
2013-01-02 03:42:00,32.5,27.6,30.32,WNW,297,0.0,0.0,82,0.00,,OVC230,0.00,VWS V14.01,2013-01-02 09:42:00,
2013-01-02 03:45:00,32.4,27.5,30.32,North,349,0.0,3.0,82,0.00,,CLR,0.00,VWS V14.01,2013-01-02 09:45:00,
2013-01-02 03:47:00,32.4,27.5,30.32,North,349,0.0,0.0,82,0.00,,OVC230,0.00,VWS V14.01,2013-01-02 09:47:00,
2013-01-02 03:50:00,32.4,27.5,30.32,NNE,19,0.0,3.0,82,0.00,,CLR,0.00,VWS V14.01,2013-01-02 09:50:00,
2013-01-02 03:52:00,32.4,27.5,30.32,NE,34,0.0,1.0,82,0.00,,OVC230,0.00,VWS V14.01,2013-01-02 09:52:00,
2013-01-02 03:55:00,32.4,27.8,30.32,NNE,12,0.0,2.0,83,0.00,,CLR,0.00,VWS V14.01,2013-01-02 09:55:00,
2013-01-02 03:57:00,32.4,27.8,30.32,NNW,338,1.0,3.0,83,0.00,,OVC230,0.00,VWS V14.01,2013-01-02 09:57:00,
2013-01-02 04:00:00,32.4,27.8,30.32,NNE,19,0.0,4.0,83,0.00,,CLR,0.00,VWS V14.01,2013-01-02 10:00:00,
2013-01-02 04:02:00,32.4,27.8,30.32,NW,319,0.0,2.0,83,0.00,,OVC230,0.00,VWS V14.01,2013-01-02 10:02:00,
2013-01-02 04:05:00,32.4,27.8,30.31,NNW,329,0.0,2.0,83,0.00,,CLR,0.00,VWS V14.01,2013-01-02 10:05:00,
2013-01-02 04:08:00,32.4,27.8,30.31,NNW,338,1.0,1.0,83,0.00,,OVC230,0.00,VWS V14.01,2013-01-02 10:08:00,
2013-01-02 04:10:00,32.4,27.8,30.31,NNE,23,1.0,2.0,83,0.00,,CLR,0.00,VWS V14.01,2013-01-02 10:10:00,
2013-01-02 04:13:00,32.4,27.8,30.31,NNE,28,3.0,4.0,83,0.00,,OVC230,0.00,VWS V14.01,2013-01-02 10:13:00,
2013-01-02 04:15:00,32.4,27.8,30.31,NNW,346,0.0,4.0,83,0.00,,CLR,0.00,VWS V14.01,2013-01-02 10:15:00,
2013-01-02 04:18:00,32.4,27.8,30.31,NW,317,0.0,3.0,83,0.00,,OVC230,0.00,VWS V14.01,2013-01-02 10:18:00,
2013-01-02 04:20:00,32.4,27.8,30.31,NNE,26,1.0,3.0,83,0.00,,CLR,0.00,VWS V14.01,2013-01-02 10:20:00,
2013-01-02 04:23:00,32.5,27.9,30.30,NNE,13,2.0,4.0,83,0.00,,OVC230,0.00,VWS V14.01,2013-01-02 10:23:00,
2013-01-02 04:25:00,32.4,27.8,30.31,North,355,0.0,4.0,83,0.00,,CLR,0.00,VWS V14.01,2013-01-02 10:25:00,
2013-01-02 04:28:00,32.4,27.8,30.31,NNW,338,1.0,4.0,83,0.00,,OVC230,0.00,VWS V14.01,2013-01-02 10:28:00,
2013-01-02 04:30:00,32.4,27.8,30.31,NNW,338,0.0,4.0,83,0.00,,CLR,0.00,VWS V14.01,2013-01-02 10:30:00,
2013-01-02 04:33:00,32.4,27.8,30.31,NNW,335,0.0,1.0,83,0.00,,OVC230,0.00,VWS V14.01,2013-01-02 10:33:00,
2013-01-02 04:35:00,32.4,27.8,30.31,NE,55,1.0,2.0,83,0.00,,CLR,0.00,VWS V14.01,2013-01-02 10:35:00,
2013-01-02 04:38:00,32.3,27.7,30.31,NE,42,2.0,4.0,83,0.00,,OVC230,0.00,VWS V14.01,2013-01-02 10:38:00,
2013-01-02 04:40:00,32.3,27.7,30.30,NNW,327,0.0,4.0,83,0.00,,CLR,0.00,VWS V14.01,2013-01-02 10:40:00,
2013-01-02 04:43:00,32.3,27.7,30.31,North,349,0.0,1.0,83,0.00,,OVC230,0.00,VWS V14.01,2013-01-02 10:43:00,
2013-01-02 04:45:00,32.2,27.6,30.30,NNE,19,0.0,5.0,83,0.00,,CLR,0.00,VWS V14.01,2013-01-02 10:45:00,
2013-01-02 04:48:00,32.1,27.5,30.30,North,351,0.0,3.0,83,0.00,,OVC230,0.00,VWS V14.01,2013-01-02 10:48:00,
2013-01-02 04:50:00,32.1,27.5,30.31,NNE,12,1.0,3.0,83,0.00,,CLR,0.00,VWS V14.01,2013-01-02 10:50:00,
2013-01-02 04:53:00,32.1,27.5,30.31,NNE,22,0.0,1.0,83,0.00,,OVC230,0.00,VWS V14.01,2013-01-02 10:53:00,
2013-01-02 04:55:00,32.0,27.4,30.31,NNE,19,0.0,1.0,83,0.00,,CLR,0.00,VWS V14.01,2013-01-02 10:55:00,
2013-01-02 04:58:00,32.0,27.7,30.31,NNE,23,0.0,1.0,84,0.00,,OVC230,0.00,VWS V14.01,2013-01-02 10:58:00,
2013-01-02 05:00:00,31.9,27.6,30.31,NNE,13,0.0,2.0,84,0.00,,CLR,0.00,VWS V14.01,2013-01-02 11:00:00,
2013-01-02 05:03:00,32.0,27.7,30.31,NNW,333,0.0,4.0,84,0.00,,OVC220,0.00,VWS V14.01,2013-01-02 11:03:00,
2013-01-02 05:05:00,32.0,27.7,30.31,NNW,342,0.0,4.0,84,0.00,,CLR,0.00,VWS V14.01,2013-01-02 11:05:00,
2013-01-02 05:08:00,32.0,27.7,30.31,NW,321,0.0,2.0,84,0.00,,OVC220,0.00,VWS V14.01,2013-01-02 11:08:00,
2013-01-02 05:10:00,32.0,27.7,30.31,NNW,346,0.0,2.0,84,0.00,,CLR,0.00,VWS V14.01,2013-01-02 11:10:00,
2013-01-02 05:13:00,32.0,27.7,30.31,West,268,1.0,2.0,84,0.00,,OVC220,0.00,VWS V14.01,2013-01-02 11:13:00,
2013-01-02 05:15:00,32.0,27.7,30.31,NNE,32,0.0,4.0,84,0.00,,CLR,0.00,VWS V14.01,2013-01-02 11:15:00,
2013-01-02 05:18:00,32.0,27.7,30.31,North,351,0.0,1.0,84,0.00,,OVC220,0.00,VWS V14.01,2013-01-02 11:18:00,
2013-01-02 05:20:00,32.0,27.7,30.31,North,355,0.0,1.0,84,0.00,,CLR,0.00,VWS V14.01,2013-01-02 11:20:00,
2013-01-02 05:23:00,32.0,27.7,30.31,NNW,340,0.0,1.0,84,0.00,,OVC220,0.00,VWS V14.01,2013-01-02 11:23:00,
2013-01-02 05:25:00,32.0,27.7,30.31,NNW,341,1.0,1.0,84,0.00,,CLR,0.00,VWS V14.01,2013-01-02 11:25:00,
2013-01-02 05:28:00,32.0,27.7,30.31,North,355,0.0,2.0,84,0.00,,OVC220,0.00,VWS V14.01,2013-01-02 11:28:00,
2013-01-02 05:30:00,31.9,27.6,30.31,NNE,22,2.0,2.0,84,0.00,,CLR,0.00,VWS V14.01,2013-01-02 11:30:00,
2013-01-02 05:33:00,31.9,27.6,30.31,NNW,346,1.0,2.0,84,0.00,,OVC220,0.00,VWS V14.01,2013-01-02 11:33:00,
2013-01-02 05:35:00,31.9,27.6,30.31,NNW,344,0.0,2.0,84,0.00,,CLR,0.00,VWS V14.01,2013-01-02 11:35:00,
2013-01-02 05:38:00,31.9,27.6,30.31,NNW,344,0.0,0.0,84,0.00,,OVC220,0.00,VWS V14.01,2013-01-02 11:38:00,
2013-01-02 05:40:00,31.8,27.5,30.31,NNW,342,0.0,1.0,84,0.00,,CLR,0.00,VWS V14.01,2013-01-02 11:40:00,
2013-01-02 05:43:00,31.8,27.5,30.31,NNW,342,0.0,1.0,84,0.00,,OVC220,0.00,VWS V14.01,2013-01-02 11:43:00,
2013-01-02 05:45:00,31.8,27.5,30.31,NNW,342,0.0,1.0,84,0.00,,CLR,0.00,VWS V14.01,2013-01-02 11:45:00,
2013-01-02 05:48:00,31.7,27.4,30.30,NNW,342,0.0,0.0,84,0.00,,OVC220,0.00,VWS V14.01,2013-01-02 11:48:00,
2013-01-02 05:50:00,31.6,27.3,30.30,NE,38,0.0,1.0,84,0.00,,CLR,0.00,VWS V14.01,2013-01-02 11:50:00,
2013-01-02 05:53:00,31.6,27.6,30.30,NE,38,0.0,0.0,85,0.00,,OVC220,0.00,VWS V14.01,2013-01-02 11:53:00,
2013-01-02 05:55:00,31.6,27.6,30.30,NE,38,0.0,0.0,85,0.00,,CLR,0.00,VWS V14.01,2013-01-02 11:55:00,
2013-01-02 05:58:00,31.6,27.6,30.31,NE,38,0.0,0.0,85,0.00,,OVC220,0.00,VWS V14.01,2013-01-02 11:58:00,
2013-01-02 06:00:00,31.5,27.5,30.31,NE,37,0.0,0.0,85,0.00,,CLR,0.00,VWS V14.01,2013-01-02 12:00:00,
2013-01-02 06:03:00,31.4,27.4,30.31,NE,38,0.0,0.0,85,0.00,,OVC220,0.00,VWS V14.01,2013-01-02 12:03:00,
2013-01-02 06:05:00,31.4,27.4,30.31,NE,38,0.0,0.0,85,0.00,,CLR,0.00,VWS V14.01,2013-01-02 12:05:00,
2013-01-02 06:08:00,31.3,27.3,30.31,NE,38,0.0,0.0,85,0.00,,OVC220,0.00,VWS V14.01,2013-01-02 12:08:00,
2013-01-02 06:10:00,31.2,27.2,30.31,NE,38,0.0,0.0,85,0.00,,CLR,0.00,VWS V14.01,2013-01-02 12:10:00,
2013-01-02 06:13:00,31.2,27.5,30.31,NE,38,0.0,0.0,86,0.00,,OVC220,0.00,VWS V14.01,2013-01-02 12:13:00,
2013-01-02 06:15:00,31.1,27.4,30.31,NE,38,0.0,0.0,86,0.00,,CLR,0.00,VWS V14.01,2013-01-02 12:15:00,
2013-01-02 06:18:00,31.1,27.4,30.31,NE,38,0.0,0.0,86,0.00,,OVC220,0.00,VWS V14.01,2013-01-02 12:18:00,
2013-01-02 06:20:00,31.0,27.3,30.31,NE,38,0.0,0.0,86,0.00,,CLR,0.00,VWS V14.01,2013-01-02 12:20:00,
2013-01-02 06:23:00,31.0,27.3,30.32,NE,49,1.0,1.0,86,0.00,,OVC220,0.00,VWS V14.01,2013-01-02 12:23:00,
2013-01-02 06:25:00,31.0,27.3,30.31,NNW,342,0.0,1.0,86,0.00,,CLR,0.00,VWS V14.01,2013-01-02 12:25:00,
2013-01-02 06:28:00,31.0,27.3,30.31,NNW,342,0.0,0.0,86,0.00,,OVC220,0.00,VWS V14.01,2013-01-02 12:28:00,
2013-01-02 06:30:00,31.0,27.3,30.31,NNE,20,0.0,0.0,86,0.00,,CLR,0.00,VWS V14.01,2013-01-02 12:30:00,
2013-01-02 06:33:00,31.1,27.4,30.32,NNE,16,0.0,0.0,86,0.00,,OVC220,0.00,VWS V14.01,2013-01-02 12:33:00,
2013-01-02 06:35:00,31.1,27.4,30.32,NNE,15,0.0,0.0,86,0.00,,CLR,0.00,VWS V14.01,2013-01-02 12:35:00,
2013-01-02 06:38:00,31.1,27.4,30.32,NNE,15,0.0,0.0,86,0.00,,OVC220,0.00,VWS V14.01,2013-01-02 12:38:00,
2013-01-02 06:40:00,31.1,27.4,30.32,NNE,16,0.0,0.0,86,0.00,,CLR,0.00,VWS V14.01,2013-01-02 12:40:00,
2013-01-02 06:43:00,31.1,27.4,30.32,NW,320,0.0,2.0,86,0.00,,OVC220,0.00,VWS V14.01,2013-01-02 12:43:00,
2013-01-02 06:45:00,31.2,27.5,30.32,NNW,348,0.0,2.0,86,0.00,,CLR,0.00,VWS V14.01,2013-01-02 12:45:00,
2013-01-02 06:48:00,31.2,27.5,30.31,NNW,342,0.0,1.0,86,0.00,,OVC220,0.00,VWS V14.01,2013-01-02 12:48:00,
2013-01-02 06:50:00,31.2,27.5,30.31,NNW,342,0.0,1.0,86,0.00,,CLR,0.00,VWS V14.01,2013-01-02 12:50:00,
2013-01-02 06:53:00,31.2,27.5,30.31,NW,321,0.0,1.0,86,0.00,,OVC220,0.00,VWS V14.01,2013-01-02 12:53:00,
2013-01-02 06:55:00,31.2,27.5,30.32,NW,321,0.0,1.0,86,0.00,,CLR,0.00,VWS V14.01,2013-01-02 12:55:00,
2013-01-02 06:58:00,31.2,27.5,30.32,NNW,340,0.0,1.0,86,0.00,,OVC220,0.00,VWS V14.01,2013-01-02 12:58:00,
2013-01-02 07:00:00,31.2,27.5,30.32,NNW,339,0.0,1.0,86,0.00,,CLR,0.00,VWS V14.01,2013-01-02 13:00:00,
2013-01-02 07:03:00,31.2,27.5,30.32,NW,321,0.0,0.0,86,0.00,,OVC220,0.00,VWS V14.01,2013-01-02 13:03:00,
2013-01-02 07:05:00,31.1,27.4,30.32,NE,46,0.0,2.0,86,0.00,,CLR,0.00,VWS V14.01,2013-01-02 13:05:00,
2013-01-02 07:08:00,31.2,27.5,30.32,NE,34,0.0,1.0,86,0.00,,OVC220,0.00,VWS V14.01,2013-01-02 13:08:00,
2013-01-02 07:10:00,31.2,27.5,30.33,NE,35,0.0,1.0,86,0.00,,CLR,0.00,VWS V14.01,2013-01-02 13:10:00,
2013-01-02 07:13:00,31.2,27.5,30.33,NW,306,0.0,0.0,86,0.00,,OVC220,0.00,VWS V14.01,2013-01-02 13:13:00,
2013-01-02 07:15:00,31.2,27.5,30.33,NW,311,0.0,0.0,86,0.00,,CLR,0.00,VWS V14.01,2013-01-02 13:15:00,
2013-01-02 07:18:00,31.2,27.5,30.33,NW,311,0.0,0.0,86,0.00,,OVC220,0.00,VWS V14.01,2013-01-02 13:18:00,
2013-01-02 07:20:00,31.2,27.5,30.33,NW,311,0.0,0.0,86,0.00,,CLR,0.00,VWS V14.01,2013-01-02 13:20:00,
2013-01-02 07:23:00,31.2,27.5,30.33,NW,311,0.0,0.0,86,0.00,,OVC220,0.00,VWS V14.01,2013-01-02 13:23:00,
2013-01-02 07:25:00,31.2,27.5,30.33,NW,311,0.0,0.0,86,0.00,,CLR,0.00,VWS V14.01,2013-01-02 13:25:00,
2013-01-02 07:28:00,31.3,27.6,30.33,NW,311,0.0,0.0,86,0.00,,OVC220,0.00,VWS V14.01,2013-01-02 13:28:00,
2013-01-02 07:30:00,31.3,27.6,30.33,WNW,282,0.0,0.0,86,0.00,,CLR,0.00,VWS V14.01,2013-01-02 13:30:00,
2013-01-02 07:33:00,31.3,27.6,30.33,NNW,344,0.0,1.0,86,0.00,,OVC220,0.00,VWS V14.01,2013-01-02 13:33:00,
2013-01-02 07:35:00,31.4,27.7,30.33,North,5,0.0,1.0,86,0.00,,CLR,0.00,VWS V14.01,2013-01-02 13:35:00,
2013-01-02 07:38:00,31.4,27.7,30.33,WNW,283,0.0,1.0,86,0.00,,OVC220,0.00,VWS V14.01,2013-01-02 13:38:00,
2013-01-02 07:40:00,31.5,27.8,30.33,NW,311,0.0,1.0,86,0.00,,CLR,0.00,VWS V14.01,2013-01-02 13:40:00,
2013-01-02 07:43:00,31.5,27.8,30.33,NNW,333,0.0,1.0,86,0.00,,OVC220,0.00,VWS V14.01,2013-01-02 13:43:00,
2013-01-02 07:45:00,31.6,27.9,30.33,NNE,24,0.0,1.0,86,0.00,,CLR,0.00,VWS V14.01,2013-01-02 13:45:00,
2013-01-02 07:48:00,31.6,27.9,30.33,NNE,26,0.0,0.0,86,0.00,,OVC220,0.00,VWS V14.01,2013-01-02 13:48:00,
2013-01-02 07:50:00,31.7,28.0,30.33,WNW,286,0.0,1.0,86,0.00,,CLR,0.00,VWS V14.01,2013-01-02 13:50:00,
2013-01-02 07:53:00,31.7,28.0,30.34,West,264,0.0,0.0,86,0.00,,OVC220,0.00,VWS V14.01,2013-01-02 13:53:00,
2013-01-02 07:55:00,31.8,28.1,30.34,NW,317,0.0,1.0,86,0.00,,CLR,0.00,VWS V14.01,2013-01-02 13:55:00,
2013-01-02 07:58:00,31.8,27.8,30.34,NW,318,0.0,0.0,85,0.00,,OVC220,0.00,VWS V14.01,2013-01-02 13:58:00,
2013-01-02 08:00:00,31.8,28.1,30.34,NW,317,0.0,0.0,86,0.00,,CLR,0.00,VWS V14.01,2013-01-02 14:00:00,
2013-01-02 08:03:00,31.9,28.2,30.34,NNW,346,0.0,1.0,86,0.00,,,0.00,VWS V14.01,2013-01-02 14:03:00,
2013-01-02 08:05:00,31.9,27.9,30.33,NNW,330,0.0,1.0,85,0.00,,CLR,0.00,VWS V14.01,2013-01-02 14:05:00,
2013-01-02 08:08:00,32.0,28.3,30.33,NNW,330,0.0,1.0,86,0.00,,,0.00,VWS V14.01,2013-01-02 14:08:00,
2013-01-02 08:10:00,32.0,28.3,30.33,NNW,330,0.0,1.0,86,0.00,,CLR,0.00,VWS V14.01,2013-01-02 14:10:00,
2013-01-02 08:13:00,32.1,28.4,30.34,West,266,0.0,1.0,86,0.00,,,0.00,VWS V14.01,2013-01-02 14:13:00,
2013-01-02 08:15:00,32.1,28.1,30.34,NNW,337,0.0,1.0,85,0.00,,CLR,0.00,VWS V14.01,2013-01-02 14:15:00,
2013-01-02 08:18:00,32.2,28.2,30.34,NNW,329,0.0,1.0,85,0.00,,,0.00,VWS V14.01,2013-01-02 14:18:00,
2013-01-02 08:20:00,32.2,28.2,30.34,NNW,328,0.0,1.0,85,0.00,,CLR,0.00,VWS V14.01,2013-01-02 14:20:00,
2013-01-02 08:23:00,32.3,28.3,30.34,NNE,31,0.0,2.0,85,0.00,,,0.00,VWS V14.01,2013-01-02 14:23:00,
2013-01-02 08:25:00,32.3,28.3,30.34,NNE,20,0.0,2.0,85,0.00,,CLR,0.00,VWS V14.01,2013-01-02 14:25:00,
2013-01-02 08:28:00,32.4,28.4,30.34,NE,38,0.0,0.0,85,0.00,,,0.00,VWS V14.01,2013-01-02 14:28:00,
2013-01-02 08:30:00,32.5,28.5,30.35,NNE,19,0.0,1.0,85,0.00,,CLR,0.00,VWS V14.01,2013-01-02 14:30:00,
2013-01-02 08:33:00,32.6,28.6,30.35,NW,322,0.0,2.0,85,0.00,,,0.00,VWS V14.01,2013-01-02 14:33:00,
2013-01-02 08:35:00,32.7,28.7,30.35,NW,322,0.0,2.0,85,0.00,,CLR,0.00,VWS V14.01,2013-01-02 14:35:00,
2013-01-02 08:38:00,32.7,28.7,30.35,NNE,23,0.0,1.0,85,0.00,,,0.00,VWS V14.01,2013-01-02 14:38:00,
2013-01-02 08:40:00,32.8,28.5,30.35,North,349,0.0,1.0,84,0.00,,CLR,0.00,VWS V14.01,2013-01-02 14:40:00,
2013-01-02 08:44:00,32.8,28.5,30.35,NNW,348,0.0,0.0,84,0.00,,,0.00,VWS V14.01,2013-01-02 14:44:00,
2013-01-02 08:45:00,32.9,28.6,30.35,North,355,1.0,1.0,84,0.00,,CLR,0.00,VWS V14.01,2013-01-02 14:45:00,
2013-01-02 08:49:00,32.9,28.6,30.35,North,355,0.0,1.0,84,0.00,,,0.00,VWS V14.01,2013-01-02 14:49:00,
2013-01-02 08:50:00,33.0,28.7,30.36,NW,317,0.0,1.0,84,0.00,,CLR,0.00,VWS V14.01,2013-01-02 14:50:00,
2013-01-02 08:54:00,33.1,28.8,30.35,NNW,337,0.0,0.0,84,0.00,,,0.00,VWS V14.01,2013-01-02 14:54:00,
2013-01-02 08:55:00,33.2,28.9,30.35,NE,53,1.0,1.0,84,0.00,,CLR,0.00,VWS V14.01,2013-01-02 14:55:00,
2013-01-02 08:58:00,33.2,28.9,30.35,NW,311,1.0,1.0,84,0.00,,OVC220,0.00,VWS V14.01,2013-01-02 14:58:00,
2013-01-02 09:00:00,33.2,28.9,30.36,NNW,348,0.0,1.0,84,0.00,,CLR,0.00,VWS V14.01,2013-01-02 15:00:00,
2013-01-02 09:04:00,33.3,29.0,30.36,NNW,348,0.0,0.0,84,0.00,,OVC220,0.00,VWS V14.01,2013-01-02 15:04:00,
2013-01-02 09:05:00,33.4,29.1,30.36,North,360,0.0,0.0,84,0.00,,CLR,0.00,VWS V14.01,2013-01-02 15:05:00,
2013-01-02 09:09:00,33.5,29.2,30.36,West,279,0.0,1.0,84,0.00,,OVC220,0.00,VWS V14.01,2013-01-02 15:09:00,
2013-01-02 09:10:00,33.6,29.0,30.36,NNE,26,1.0,1.0,83,0.00,,CLR,0.00,VWS V14.01,2013-01-02 15:10:00,
2013-01-02 09:14:00,33.6,29.0,30.36,NNE,27,1.0,3.0,83,0.00,,OVC220,0.00,VWS V14.01,2013-01-02 15:14:00,
2013-01-02 09:15:00,33.5,28.9,30.36,NNE,29,0.0,3.0,83,0.00,,CLR,0.00,VWS V14.01,2013-01-02 15:15:00,
2013-01-02 09:19:00,33.6,29.0,30.36,NNW,344,0.0,1.0,83,0.00,,OVC220,0.00,VWS V14.01,2013-01-02 15:19:00,
2013-01-02 09:20:00,33.6,29.0,30.36,NNW,342,0.0,1.0,83,0.00,,CLR,0.00,VWS V14.01,2013-01-02 15:20:00,
2013-01-02 09:24:00,33.8,29.2,30.36,NW,319,0.0,1.0,83,0.00,,OVC220,0.00,VWS V14.01,2013-01-02 15:24:00,
2013-01-02 09:25:00,33.9,29.3,30.36,NW,319,0.0,1.0,83,0.00,,CLR,0.00,VWS V14.01,2013-01-02 15:25:00,
2013-01-02 09:29:00,34.1,29.5,30.36,NW,314,0.0,0.0,83,0.00,,OVC220,0.00,VWS V14.01,2013-01-02 15:29:00,
2013-01-02 09:30:00,34.2,29.3,30.36,West,277,1.0,1.0,82,0.00,,CLR,0.00,VWS V14.01,2013-01-02 15:30:00,
2013-01-02 09:34:00,34.3,29.4,30.36,SW,236,0.0,1.0,82,0.00,,OVC220,0.00,VWS V14.01,2013-01-02 15:34:00,
2013-01-02 09:35:00,34.4,29.5,30.36,West,259,1.0,1.0,82,0.00,,CLR,0.00,VWS V14.01,2013-01-02 15:35:00,
2013-01-02 09:39:00,34.5,29.0,30.36,NNW,342,0.0,3.0,80,0.00,,OVC220,0.00,VWS V14.01,2013-01-02 15:39:00,
2013-01-02 09:40:00,34.4,29.2,30.36,NNW,344,0.0,3.0,81,0.00,,CLR,0.00,VWS V14.01,2013-01-02 15:40:00,
2013-01-02 09:44:00,34.4,29.2,30.36,NNE,27,1.0,1.0,81,0.00,,OVC220,0.00,VWS V14.01,2013-01-02 15:44:00,
2013-01-02 09:45:00,34.5,29.3,30.37,NNE,19,0.0,1.0,81,0.00,,CLR,0.00,VWS V14.01,2013-01-02 15:45:00,
2013-01-02 09:49:00,34.4,28.9,30.37,NNE,32,1.0,3.0,80,0.00,,OVC220,0.00,VWS V14.01,2013-01-02 15:49:00,
2013-01-02 09:50:00,34.4,28.9,30.37,NNW,335,0.0,3.0,80,0.00,,CLR,0.00,VWS V14.01,2013-01-02 15:50:00,
2013-01-02 09:54:00,34.4,29.2,30.37,NNE,27,1.0,1.0,81,0.00,,OVC220,0.00,VWS V14.01,2013-01-02 15:54:00,
2013-01-02 09:55:00,34.4,29.2,30.37,NNW,348,0.0,1.0,81,0.00,,CLR,0.00,VWS V14.01,2013-01-02 15:55:00,
2013-01-02 09:59:00,34.6,29.4,30.37,NW,310,0.0,2.0,81,0.00,,OVC220,0.00,VWS V14.01,2013-01-02 15:59:00,
2013-01-02 10:00:00,34.7,29.5,30.37,NW,306,0.0,2.0,81,0.00,,CLR,0.00,VWS V14.01,2013-01-02 16:00:00,
2013-01-02 10:04:00,34.9,29.4,30.37,NNW,340,0.0,2.0,80,0.00,,OVC220,0.00,VWS V14.01,2013-01-02 16:04:00,
2013-01-02 10:05:00,35.0,29.5,30.37,WNW,283,0.0,2.0,80,0.00,,CLR,0.00,VWS V14.01,2013-01-02 16:05:00,
2013-01-02 10:09:00,35.3,29.8,30.37,WSW,254,0.0,1.0,80,0.00,,OVC220,0.00,VWS V14.01,2013-01-02 16:09:00,
2013-01-02 10:10:00,35.4,29.5,30.37,West,268,0.0,1.0,79,0.00,,CLR,0.00,VWS V14.01,2013-01-02 16:10:00,
2013-01-02 10:14:00,35.6,29.7,30.37,NW,319,0.0,1.0,79,0.00,,OVC220,0.00,VWS V14.01,2013-01-02 16:14:00,
2013-01-02 10:15:00,35.7,29.5,30.37,NNE,22,1.0,2.0,78,0.00,,CLR,0.00,VWS V14.01,2013-01-02 16:15:00,
2013-01-02 10:19:00,35.6,29.1,30.37,NE,46,0.0,2.0,77,0.00,,OVC220,0.00,VWS V14.01,2013-01-02 16:19:00,
2013-01-02 10:20:00,35.5,29.0,30.37,NNW,340,0.0,2.0,77,0.00,,CLR,0.00,VWS V14.01,2013-01-02 16:20:00,
2013-01-02 10:24:00,35.6,29.4,30.37,WSW,240,0.0,2.0,78,0.00,,OVC220,0.00,VWS V14.01,2013-01-02 16:24:00,
2013-01-02 10:25:00,35.7,29.5,30.37,West,261,1.0,2.0,78,0.00,,CLR,0.00,VWS V14.01,2013-01-02 16:25:00,
2013-01-02 10:29:00,35.9,29.7,30.37,West,267,0.0,1.0,78,0.00,,OVC220,0.00,VWS V14.01,2013-01-02 16:29:00,
2013-01-02 10:30:00,36.0,29.8,30.38,WNW,286,0.0,1.0,78,0.00,,CLR,0.00,VWS V14.01,2013-01-02 16:30:00,
2013-01-02 10:34:00,36.2,29.7,30.37,NNW,331,0.0,1.0,77,0.00,,OVC220,0.00,VWS V14.01,2013-01-02 16:34:00,
2013-01-02 10:35:00,36.2,29.7,30.37,West,273,0.0,1.0,77,0.00,,CLR,0.00,VWS V14.01,2013-01-02 16:35:00,
2013-01-02 10:39:00,36.3,29.5,30.38,NNW,334,1.0,2.0,76,0.00,,OVC220,0.00,VWS V14.01,2013-01-02 16:39:00,
2013-01-02 10:40:00,36.2,29.7,30.37,NNW,332,0.0,2.0,77,0.00,,CLR,0.00,VWS V14.01,2013-01-02 16:40:00,
2013-01-02 10:44:00,36.2,29.4,30.38,WNW,286,0.0,4.0,76,0.00,,OVC220,0.00,VWS V14.01,2013-01-02 16:44:00,
2013-01-02 10:45:00,36.2,29.4,30.38,NE,39,2.0,4.0,76,0.00,,CLR,0.00,VWS V14.01,2013-01-02 16:45:00,
2013-01-02 10:49:00,36.3,29.5,30.38,West,277,1.0,4.0,76,0.00,,OVC220,0.00,VWS V14.01,2013-01-02 16:49:00,
2013-01-02 10:50:00,36.4,29.6,30.38,WSW,240,0.0,4.0,76,0.00,,CLR,0.00,VWS V14.01,2013-01-02 16:50:00,
2013-01-02 10:54:00,36.7,29.9,30.37,WNW,287,0.0,1.0,76,0.00,,OVC220,0.00,VWS V14.01,2013-01-02 16:54:00,
2013-01-02 10:55:00,36.8,29.6,30.37,North,355,1.0,2.0,75,0.00,,CLR,0.00,VWS V14.01,2013-01-02 16:55:00,
2013-01-02 10:59:00,37.0,29.5,30.38,NNW,338,1.0,6.0,74,0.00,,OVC220,0.00,VWS V14.01,2013-01-02 16:59:00,
2013-01-02 11:00:00,37.0,29.5,30.38,NNE,24,2.0,6.0,74,0.00,,CLR,0.00,VWS V14.01,2013-01-02 17:00:00,
2013-01-02 11:04:00,36.9,29.4,30.37,NE,51,2.0,3.0,74,0.00,,OVC220,0.00,VWS V14.01,2013-01-02 17:04:00,
2013-01-02 11:05:00,36.9,29.7,30.37,NE,44,2.0,3.0,75,0.00,,CLR,0.00,VWS V14.01,2013-01-02 17:05:00,
2013-01-02 11:09:00,36.9,29.4,30.37,NNW,330,0.0,3.0,74,0.00,,OVC220,0.00,VWS V14.01,2013-01-02 17:09:00,
2013-01-02 11:10:00,36.9,29.1,30.37,NE,55,0.0,3.0,73,0.00,,CLR,0.00,VWS V14.01,2013-01-02 17:10:00,
2013-01-02 11:14:00,37.1,29.6,30.38,WNW,286,0.0,1.0,74,0.00,,OVC220,0.00,VWS V14.01,2013-01-02 17:14:00,
2013-01-02 11:15:00,37.3,29.8,30.37,West,281,1.0,2.0,74,0.00,,CLR,0.00,VWS V14.01,2013-01-02 17:15:00,
2013-01-02 11:19:00,37.5,29.3,30.37,NNW,340,2.0,5.0,72,0.00,,OVC220,0.00,VWS V14.01,2013-01-02 17:19:00,
2013-01-02 11:20:00,37.3,28.8,30.37,West,273,0.0,5.0,71,0.00,,CLR,0.00,VWS V14.01,2013-01-02 17:20:00,
2013-01-02 11:24:00,37.2,28.7,30.37,NNW,345,1.0,5.0,71,0.00,,OVC220,0.00,VWS V14.01,2013-01-02 17:24:00,
2013-01-02 11:25:00,37.1,28.9,30.37,NNE,31,1.0,5.0,72,0.00,,CLR,0.00,VWS V14.01,2013-01-02 17:25:00,
2013-01-02 11:29:00,37.2,29.0,30.36,ENE,72,0.0,3.0,72,0.00,,OVC220,0.00,VWS V14.01,2013-01-02 17:29:00,
2013-01-02 11:30:00,37.3,29.8,30.36,NNW,346,0.0,3.0,74,0.00,,CLR,0.00,VWS V14.01,2013-01-02 17:30:00,
2013-01-02 11:34:00,37.8,29.6,30.36,NNE,27,0.0,2.0,72,0.00,,OVC220,0.00,VWS V14.01,2013-01-02 17:34:00,
2013-01-02 11:35:00,37.9,29.7,30.36,WNW,298,1.0,2.0,72,0.00,,CLR,0.00,VWS V14.01,2013-01-02 17:35:00,
2013-01-02 11:39:00,38.2,29.6,30.36,NNW,336,0.0,1.0,71,0.00,,OVC220,0.00,VWS V14.01,2013-01-02 17:39:00,
2013-01-02 11:40:00,38.3,29.4,30.36,NNE,20,0.0,1.0,70,0.00,,CLR,0.00,VWS V14.01,2013-01-02 17:40:00,
2013-01-02 11:44:00,38.5,29.9,30.35,NNE,27,0.0,2.0,71,0.00,,OVC220,0.00,VWS V14.01,2013-01-02 17:44:00,
2013-01-02 11:45:00,38.5,29.9,30.35,WNW,290,0.0,2.0,71,0.00,,CLR,0.00,VWS V14.01,2013-01-02 17:45:00,
2013-01-02 11:49:00,38.7,30.1,30.35,WNW,302,0.0,1.0,71,0.00,,OVC220,0.00,VWS V14.01,2013-01-02 17:49:00,
2013-01-02 11:50:00,38.7,30.1,30.35,West,260,0.0,1.0,71,0.00,,CLR,0.00,VWS V14.01,2013-01-02 17:50:00,
2013-01-02 11:54:00,38.8,29.9,30.35,NNW,342,1.0,2.0,70,0.00,,OVC220,0.00,VWS V14.01,2013-01-02 17:54:00,
2013-01-02 11:55:00,38.7,29.8,30.35,NNW,338,0.0,2.0,70,0.00,,CLR,0.00,VWS V14.01,2013-01-02 17:55:00,
2013-01-02 11:59:00,38.5,29.9,30.35,NNE,22,2.0,2.0,71,0.00,,OVC220,0.00,VWS V14.01,2013-01-02 17:59:00,
2013-01-02 12:00:00,38.4,29.5,30.35,NNW,347,0.0,3.0,70,0.00,,CLR,0.00,VWS V14.01,2013-01-02 18:00:00,
2013-01-02 12:04:00,38.0,29.5,30.35,NE,46,1.0,2.0,71,0.00,,OVC220,0.00,VWS V14.01,2013-01-02 18:04:00,
2013-01-02 12:05:00,38.0,29.5,30.35,NNE,22,0.0,2.0,71,0.00,,CLR,0.00,VWS V14.01,2013-01-02 18:05:00,
2013-01-02 12:09:00,37.9,29.4,30.35,WNW,290,0.0,2.0,71,0.00,,OVC220,0.00,VWS V14.01,2013-01-02 18:09:00,
2013-01-02 12:10:00,37.9,29.7,30.34,WNW,290,0.0,2.0,72,0.00,,CLR,0.00,VWS V14.01,2013-01-02 18:10:00,
2013-01-02 12:14:00,38.0,29.8,30.34,North,5,0.0,2.0,72,0.00,,OVC220,0.00,VWS V14.01,2013-01-02 18:14:00,
2013-01-02 12:15:00,38.0,29.8,30.34,North,360,0.0,2.0,72,0.00,,CLR,0.00,VWS V14.01,2013-01-02 18:15:00,
2013-01-02 12:19:00,37.8,29.3,30.34,NE,36,1.0,5.0,71,0.00,,OVC220,0.00,VWS V14.01,2013-01-02 18:19:00,
2013-01-02 12:20:00,37.7,29.2,30.33,NE,47,0.0,5.0,71,0.00,,CLR,0.00,VWS V14.01,2013-01-02 18:20:00,
2013-01-02 12:24:00,37.9,29.7,30.33,WNW,287,1.0,1.0,72,0.00,,OVC220,0.00,VWS V14.01,2013-01-02 18:24:00,
2013-01-02 12:25:00,38.0,29.8,30.33,WNW,290,0.0,1.0,72,0.00,,CLR,0.00,VWS V14.01,2013-01-02 18:25:00,
2013-01-02 12:29:00,38.2,30.0,30.33,SSW,205,1.0,2.0,72,0.00,,OVC220,0.00,VWS V14.01,2013-01-02 18:29:00,
2013-01-02 12:30:00,38.3,30.1,30.33,NNE,13,2.0,3.0,72,0.00,,CLR,0.00,VWS V14.01,2013-01-02 18:30:00,
2013-01-02 12:34:00,38.1,29.9,30.32,NNW,329,3.0,3.0,72,0.00,,OVC220,0.00,VWS V14.01,2013-01-02 18:34:00,
2013-01-02 12:35:00,38.0,29.5,30.32,NNW,344,0.0,3.0,71,0.00,,CLR,0.00,VWS V14.01,2013-01-02 18:35:00,
2013-01-02 12:39:00,37.8,29.3,30.32,NE,38,1.0,5.0,71,0.00,,OVC220,0.00,VWS V14.01,2013-01-02 18:39:00,
2013-01-02 12:40:00,37.8,29.6,30.32,NE,36,4.0,5.0,72,0.00,,CLR,0.00,VWS V14.01,2013-01-02 18:40:00,
2013-01-02 12:44:00,37.7,29.2,30.32,NW,325,3.0,5.0,71,0.00,,OVC220,0.00,VWS V14.01,2013-01-02 18:44:00,
2013-01-02 12:45:00,37.6,29.1,30.32,NNW,330,1.0,5.0,71,0.00,,CLR,0.00,VWS V14.01,2013-01-02 18:45:00,
2013-01-02 12:49:00,37.4,29.2,30.32,NNE,12,2.0,6.0,72,0.00,,OVC220,0.00,VWS V14.01,2013-01-02 18:49:00,
2013-01-02 12:50:00,37.4,29.2,30.32,NW,317,1.0,6.0,72,0.00,,CLR,0.00,VWS V14.01,2013-01-02 18:50:00,
2013-01-02 12:55:00,37.5,29.6,30.32,NNW,342,1.0,5.0,73,0.00,,OVC220,0.00,VWS V14.01,2013-01-02 18:55:00,
2013-01-02 13:00:00,37.7,29.5,30.32,NE,51,0.0,4.0,72,0.00,,OVC250,0.00,VWS V14.01,2013-01-02 19:00:00,
2013-01-02 13:04:00,38.2,30.3,30.31,WSW,257,0.0,2.0,73,0.00,,OVC250,0.00,VWS V14.01,2013-01-02 19:04:00,
2013-01-02 13:05:00,38.3,30.1,30.31,NNE,16,1.0,2.0,72,0.00,,CLR,0.00,VWS V14.01,2013-01-02 19:05:00,
2013-01-02 13:09:00,38.4,30.2,30.32,West,272,1.0,4.0,72,0.00,,OVC250,0.00,VWS V14.01,2013-01-02 19:09:00,
2013-01-02 13:10:00,38.4,29.8,30.31,NNW,337,0.0,4.0,71,0.00,,CLR,0.00,VWS V14.01,2013-01-02 19:10:00,
2013-01-02 13:14:00,38.4,29.8,30.31,NNW,330,0.0,1.0,71,0.00,,OVC250,0.00,VWS V14.01,2013-01-02 19:14:00,
2013-01-02 13:15:00,38.4,29.8,30.31,NNW,330,0.0,1.0,71,0.00,,CLR,0.00,VWS V14.01,2013-01-02 19:15:00,
2013-01-02 13:19:00,38.3,29.7,30.31,NW,324,2.0,2.0,71,0.00,,OVC250,0.00,VWS V14.01,2013-01-02 19:19:00,
2013-01-02 13:20:00,38.3,29.7,30.31,NNW,338,1.0,5.0,71,0.00,,CLR,0.00,VWS V14.01,2013-01-02 19:20:00,
2013-01-02 13:24:00,38.2,29.6,30.31,NNE,15,3.0,4.0,71,0.00,,OVC250,0.00,VWS V14.01,2013-01-02 19:24:00,
2013-01-02 13:25:00,38.2,29.6,30.31,NNW,344,1.0,4.0,71,0.00,,CLR,0.00,VWS V14.01,2013-01-02 19:25:00,
2013-01-02 13:30:00,38.3,29.7,30.30,NNE,22,0.0,4.0,71,0.00,,OVC250,0.00,VWS V14.01,2013-01-02 19:30:00,
2013-01-02 13:35:00,38.7,29.8,30.30,West,275,0.0,2.0,70,0.00,,OVC250,0.00,VWS V14.01,2013-01-02 19:35:00,
2013-01-02 13:40:00,38.7,29.4,30.30,NNE,32,3.0,4.0,69,0.00,,OVC250,0.00,VWS V14.01,2013-01-02 19:40:00,
2013-01-02 13:45:00,38.8,30.2,30.30,NE,49,2.0,4.0,71,0.00,,OVC250,0.00,VWS V14.01,2013-01-02 19:45:00,
2013-01-02 13:50:00,38.9,30.0,30.30,West,275,0.0,1.0,70,0.00,,OVC250,0.00,VWS V14.01,2013-01-02 19:50:00,
2013-01-02 13:55:00,39.2,30.2,30.30,NNE,32,0.0,3.0,70,0.00,,OVC250,0.00,VWS V14.01,2013-01-02 19:55:00,
2013-01-02 14:00:00,39.4,30.1,30.30,NNE,27,4.0,4.0,69,0.00,,OVC240,0.00,VWS V14.01,2013-01-02 20:00:00,
2013-01-02 14:05:00,39.2,29.9,30.30,WNW,302,1.0,4.0,69,0.00,,OVC240,0.00,VWS V14.01,2013-01-02 20:05:00,
2013-01-02 14:10:00,39.2,29.9,30.30,ENE,63,0.0,2.0,69,0.00,,OVC240,0.00,VWS V14.01,2013-01-02 20:10:00,
2013-01-02 14:15:00,39.1,29.5,30.30,NW,314,0.0,4.0,68,0.00,,OVC240,0.00,VWS V14.01,2013-01-02 20:15:00,
2013-01-02 14:20:00,39.2,29.9,30.30,ENE,61,3.0,3.0,69,0.00,,OVC240,0.00,VWS V14.01,2013-01-02 20:20:00,
2013-01-02 14:25:00,39.2,29.5,30.29,NNE,26,1.0,5.0,68,0.00,,OVC240,0.00,VWS V14.01,2013-01-02 20:25:00,
2013-01-02 14:30:00,39.3,30.0,30.29,WNW,294,0.0,2.0,69,0.00,,OVC240,0.00,VWS V14.01,2013-01-02 20:30:00,
2013-01-02 14:35:00,39.4,29.7,30.29,NE,47,2.0,3.0,68,0.00,,OVC240,0.00,VWS V14.01,2013-01-02 20:35:00,
2013-01-02 14:40:00,39.6,29.9,30.29,WNW,283,0.0,3.0,68,0.00,,OVC240,0.00,VWS V14.01,2013-01-02 20:40:00,
2013-01-02 14:45:00,39.9,30.2,30.29,West,276,0.0,1.0,68,0.00,,OVC240,0.00,VWS V14.01,2013-01-02 20:45:00,
2013-01-02 14:50:00,40.1,30.4,30.29,NE,54,0.0,2.0,68,0.00,,OVC240,0.00,VWS V14.01,2013-01-02 20:50:00,
2013-01-02 14:55:00,40.4,30.3,30.29,NE,34,1.0,3.0,67,0.00,,OVC240,0.00,VWS V14.01,2013-01-02 20:55:00,
2013-01-02 15:00:00,40.1,30.0,30.29,WNW,286,0.0,6.0,67,0.00,,OVC240,0.00,VWS V14.01,2013-01-02 21:00:00,
2013-01-02 15:05:00,40.1,30.0,30.28,WSW,249,1.0,2.0,67,0.00,,OVC240,0.00,VWS V14.01,2013-01-02 21:05:00,
2013-01-02 15:10:00,40.2,30.1,30.28,WNW,284,0.0,2.0,67,0.00,,OVC240,0.00,VWS V14.01,2013-01-02 21:10:00,
2013-01-02 15:15:00,40.3,29.9,30.28,NNW,328,0.0,4.0,66,0.00,,OVC240,0.00,VWS V14.01,2013-01-02 21:15:00,
2013-01-02 15:20:00,40.2,30.1,30.28,WNW,290,0.0,2.0,67,0.00,,OVC240,0.00,VWS V14.01,2013-01-02 21:20:00,
2013-01-02 15:25:00,40.4,30.3,30.28,NNE,16,2.0,2.0,67,0.00,,OVC240,0.00,VWS V14.01,2013-01-02 21:25:00,
2013-01-02 15:30:00,40.2,29.8,30.28,NNW,333,0.0,3.0,66,0.00,,OVC240,0.00,VWS V14.01,2013-01-02 21:30:00,
2013-01-02 15:35:00,40.1,30.0,30.28,West,281,0.0,2.0,67,0.00,,OVC240,0.00,VWS V14.01,2013-01-02 21:35:00,
2013-01-02 15:40:00,40.3,29.9,30.28,North,360,1.0,1.0,66,0.00,,OVC240,0.00,VWS V14.01,2013-01-02 21:40:00,
2013-01-02 15:45:00,40.3,29.9,30.28,NNW,327,0.0,2.0,66,0.00,,OVC240,0.00,VWS V14.01,2013-01-02 21:45:00,
2013-01-02 15:50:00,40.3,29.9,30.28,North,355,2.0,2.0,66,0.00,,OVC240,0.00,VWS V14.01,2013-01-02 21:50:00,
2013-01-02 15:55:00,40.2,29.8,30.28,NNW,336,1.0,4.0,66,0.00,,OVC240,0.00,VWS V14.01,2013-01-02 21:55:00,
2013-01-02 16:00:00,40.2,30.1,30.28,WNW,303,0.0,2.0,67,0.00,,BKN240,0.00,VWS V14.01,2013-01-02 22:00:00,
2013-01-02 16:05:00,40.4,30.0,30.28,NNE,12,0.0,2.0,66,0.00,,BKN240,0.00,VWS V14.01,2013-01-02 22:05:00,
2013-01-02 16:10:00,40.4,30.0,30.28,WSW,256,0.0,1.0,66,0.00,,BKN240,0.00,VWS V14.01,2013-01-02 22:10:00,
2013-01-02 16:15:00,40.6,30.5,30.28,SW,234,0.0,0.0,67,0.00,,BKN240,0.00,VWS V14.01,2013-01-02 22:15:00,
2013-01-02 16:20:00,40.7,30.2,30.28,West,261,0.0,2.0,66,0.00,,BKN240,0.00,VWS V14.01,2013-01-02 22:20:00,
2013-01-02 16:25:00,40.6,29.8,30.28,NW,311,0.0,2.0,65,0.00,,BKN240,0.00,VWS V14.01,2013-01-02 22:25:00,
2013-01-02 16:30:00,40.5,29.3,30.28,NNW,341,3.0,3.0,64,0.00,,BKN240,0.00,VWS V14.01,2013-01-02 22:30:00,
2013-01-02 16:35:00,40.4,29.2,30.28,NNE,19,1.0,2.0,64,0.00,,BKN240,0.00,VWS V14.01,2013-01-02 22:35:00,
2013-01-02 16:40:00,40.3,29.1,30.28,NNE,28,1.0,3.0,64,0.00,,BKN240,0.00,VWS V14.01,2013-01-02 22:40:00,
2013-01-02 16:45:00,40.3,29.5,30.28,NNW,346,1.0,1.0,65,0.00,,BKN240,0.00,VWS V14.01,2013-01-02 22:45:00,
2013-01-02 16:50:00,40.1,28.9,30.28,NNE,19,0.0,3.0,64,0.00,,BKN240,0.00,VWS V14.01,2013-01-02 22:50:00,
2013-01-02 16:55:00,39.8,29.0,30.28,North,355,0.0,1.0,65,0.00,,BKN240,0.00,VWS V14.01,2013-01-02 22:55:00,
2013-01-02 17:00:00,39.5,28.7,30.28,NE,38,0.0,1.0,65,0.00,,BKN240,0.00,VWS V14.01,2013-01-02 23:00:00,
2013-01-02 17:05:00,39.3,28.9,30.28,NW,326,0.0,1.0,66,0.00,,BKN240,0.00,VWS V14.01,2013-01-02 23:05:00,
2013-01-02 17:10:00,39.0,28.6,30.28,NNE,26,0.0,1.0,66,0.00,,BKN240,0.00,VWS V14.01,2013-01-02 23:10:00,
2013-01-02 17:15:00,38.8,28.8,30.28,NNE,19,0.0,1.0,67,0.00,,BKN240,0.00,VWS V14.01,2013-01-02 23:15:00,
2013-01-02 17:20:00,38.5,28.9,30.28,WNW,300,0.0,1.0,68,0.00,,BKN240,0.00,VWS V14.01,2013-01-02 23:20:00,
2013-01-02 17:25:00,38.4,28.8,30.28,WNW,300,0.0,0.0,68,0.00,,BKN240,0.00,VWS V14.01,2013-01-02 23:25:00,
2013-01-02 17:30:00,38.1,28.8,30.28,WNW,300,0.0,0.0,69,0.00,,BKN240,0.00,VWS V14.01,2013-01-02 23:30:00,
2013-01-02 17:35:00,37.8,28.6,30.28,WNW,300,0.0,0.0,69,0.00,,BKN240,0.00,VWS V14.01,2013-01-02 23:35:00,
2013-01-02 17:40:00,37.6,29.1,30.28,WNW,300,0.0,0.0,71,0.00,,BKN240,0.00,VWS V14.01,2013-01-02 23:40:00,
2013-01-02 17:45:00,37.4,28.5,30.29,WNW,300,0.0,0.0,70,0.00,,BKN240,0.00,VWS V14.01,2013-01-02 23:45:00,
2013-01-02 17:50:00,37.0,28.5,30.28,WNW,300,0.0,0.0,71,0.00,,BKN240,0.00,VWS V14.01,2013-01-02 23:50:00,
2013-01-02 17:55:00,36.5,28.4,30.28,WNW,300,0.0,0.0,72,0.00,,BKN240,0.00,VWS V14.01,2013-01-02 23:55:00,
2013-01-02 18:00:00,36.0,28.2,30.28,WNW,300,0.0,0.0,73,0.00,,BKN250,0.00,VWS V14.01,2013-01-03 00:00:00,
2013-01-02 18:05:00,35.7,28.6,30.29,WNW,300,0.0,0.0,75,0.00,,BKN250,0.00,VWS V14.01,2013-01-03 00:05:00,
2013-01-02 18:10:00,35.3,28.8,30.29,WNW,300,0.0,0.0,77,0.00,,BKN250,0.00,VWS V14.01,2013-01-03 00:10:00,
2013-01-02 18:15:00,35.0,28.5,30.29,WNW,300,0.0,0.0,77,0.00,,BKN250,0.00,VWS V14.01,2013-01-03 00:15:00,
2013-01-02 18:20:00,34.7,28.5,30.29,WNW,301,0.0,0.0,78,0.00,,BKN250,0.00,VWS V14.01,2013-01-03 00:20:00,
2013-01-02 18:25:00,34.4,28.6,30.29,WNW,300,0.0,0.0,79,0.00,,BKN250,0.00,VWS V14.01,2013-01-03 00:25:00,
2013-01-02 18:30:00,34.1,28.6,30.29,WNW,300,0.0,0.0,80,0.00,,BKN250,0.00,VWS V14.01,2013-01-03 00:30:00,
2013-01-02 18:35:00,33.7,28.2,30.30,WNW,300,0.0,0.0,80,0.00,,CLR,0.00,VWS V14.01,2013-01-03 00:35:00,
2013-01-02 18:36:00,33.7,28.2,30.30,WNW,300,0.0,0.0,80,0.00,,BKN250,0.00,VWS V14.01,2013-01-03 00:36:00,
2013-01-02 18:40:00,33.4,28.2,30.30,WNW,300,0.0,0.0,81,0.00,,CLR,0.00,VWS V14.01,2013-01-03 00:40:00,
2013-01-02 18:41:00,33.4,28.2,30.30,WNW,300,0.0,0.0,81,0.00,,BKN250,0.00,VWS V14.01,2013-01-03 00:41:00,
2013-01-02 18:45:00,33.2,28.3,30.30,WNW,300,0.0,0.0,82,0.00,,CLR,0.00,VWS V14.01,2013-01-03 00:45:00,
2013-01-02 18:46:00,33.2,28.3,30.30,WNW,300,0.0,0.0,82,0.00,,BKN250,0.00,VWS V14.01,2013-01-03 00:46:00,
2013-01-02 18:50:00,33.1,28.5,30.31,WNW,300,0.0,0.0,83,0.00,,CLR,0.00,VWS V14.01,2013-01-03 00:50:00,
2013-01-02 18:51:00,33.1,28.5,30.31,WNW,300,0.0,0.0,83,0.00,,BKN250,0.00,VWS V14.01,2013-01-03 00:51:00,
2013-01-02 18:55:00,32.9,28.3,30.31,WNW,300,0.0,0.0,83,0.00,,CLR,0.00,VWS V14.01,2013-01-03 00:55:00,
2013-01-02 18:56:00,32.9,28.3,30.31,WNW,300,0.0,0.0,83,0.00,,BKN250,0.00,VWS V14.01,2013-01-03 00:56:00,
2013-01-02 19:00:00,32.9,28.6,30.31,WNW,302,0.0,0.0,84,0.00,,CLR,0.00,VWS V14.01,2013-01-03 01:00:00,
2013-01-02 19:01:00,32.9,28.6,30.31,WNW,300,0.0,0.0,84,0.00,,BKN250,0.00,VWS V14.01,2013-01-03 01:01:00,
2013-01-02 19:05:00,32.7,28.4,30.31,WNW,300,0.0,0.0,84,0.00,,CLR,0.00,VWS V14.01,2013-01-03 01:05:00,
2013-01-02 19:06:00,32.7,28.4,30.31,WNW,300,0.0,0.0,84,0.00,,BKN250,0.00,VWS V14.01,2013-01-03 01:06:00,
2013-01-02 19:10:00,32.4,28.1,30.31,WNW,300,0.0,0.0,84,0.00,,CLR,0.00,VWS V14.01,2013-01-03 01:10:00,
2013-01-02 19:11:00,32.4,28.1,30.31,WNW,300,0.0,0.0,84,0.00,,BKN250,0.00,VWS V14.01,2013-01-03 01:11:00,
2013-01-02 19:15:00,32.1,27.8,30.32,WNW,300,0.0,0.0,84,0.00,,CLR,0.00,VWS V14.01,2013-01-03 01:15:00,
2013-01-02 19:16:00,32.1,27.8,30.31,WNW,300,0.0,0.0,84,0.00,,BKN250,0.00,VWS V14.01,2013-01-03 01:16:00,
2013-01-02 19:20:00,32.0,28.0,30.32,WNW,300,0.0,0.0,85,0.00,,CLR,0.00,VWS V14.01,2013-01-03 01:20:00,
2013-01-02 19:21:00,32.0,28.3,30.32,WNW,300,0.0,0.0,86,0.00,,BKN250,0.00,VWS V14.01,2013-01-03 01:21:00,
2013-01-02 19:25:00,32.0,28.3,30.32,WNW,300,0.0,0.0,86,0.00,,CLR,0.00,VWS V14.01,2013-01-03 01:25:00,
2013-01-02 19:26:00,32.0,28.6,30.32,WNW,300,0.0,0.0,87,0.00,,BKN250,0.00,VWS V14.01,2013-01-03 01:26:00,
2013-01-02 19:30:00,32.2,28.8,30.32,WNW,300,0.0,0.0,87,0.00,,CLR,0.00,VWS V14.01,2013-01-03 01:30:00,
2013-01-02 19:31:00,32.2,28.8,30.32,WNW,300,0.0,0.0,87,0.00,,BKN250,0.00,VWS V14.01,2013-01-03 01:31:00,
2013-01-02 19:35:00,32.1,28.4,30.32,WNW,302,0.0,0.0,86,0.00,,CLR,0.00,VWS V14.01,2013-01-03 01:35:00,
2013-01-02 19:36:00,32.1,28.4,30.32,WNW,302,0.0,0.0,86,0.00,,BKN250,0.00,VWS V14.01,2013-01-03 01:36:00,
2013-01-02 19:40:00,31.9,28.2,30.32,WNW,301,0.0,0.0,86,0.00,,CLR,0.00,VWS V14.01,2013-01-03 01:40:00,
2013-01-02 19:42:00,31.9,28.2,30.32,WNW,300,0.0,0.0,86,0.00,,BKN250,0.00,VWS V14.01,2013-01-03 01:42:00,
2013-01-02 19:45:00,31.6,27.9,30.32,WNW,302,0.0,0.0,86,0.00,,CLR,0.00,VWS V14.01,2013-01-03 01:45:00,
2013-01-02 19:47:00,31.6,27.9,30.32,WNW,300,0.0,0.0,86,0.00,,BKN250,0.00,VWS V14.01,2013-01-03 01:47:00,
2013-01-02 19:50:00,31.2,27.5,30.32,WNW,301,0.0,0.0,86,0.00,,CLR,0.00,VWS V14.01,2013-01-03 01:50:00,
2013-01-02 19:52:00,31.1,27.4,30.33,WNW,302,0.0,0.0,86,0.00,,BKN250,0.00,VWS V14.01,2013-01-03 01:52:00,
2013-01-02 19:55:00,30.9,27.5,30.33,WNW,300,0.0,0.0,87,0.00,,CLR,0.00,VWS V14.01,2013-01-03 01:55:00,
2013-01-02 19:57:00,30.8,27.4,30.33,WNW,300,0.0,0.0,87,0.00,,BKN250,0.00,VWS V14.01,2013-01-03 01:57:00,
2013-01-02 20:00:00,30.7,27.3,30.33,WNW,300,0.0,0.0,87,0.00,,CLR,0.00,VWS V14.01,2013-01-03 02:00:00,
2013-01-02 20:02:00,30.6,27.5,30.33,WNW,300,0.0,0.0,88,0.00,,BKN250,0.00,VWS V14.01,2013-01-03 02:02:00,
2013-01-02 20:05:00,30.5,27.4,30.33,WNW,301,0.0,0.0,88,0.00,,CLR,0.00,VWS V14.01,2013-01-03 02:05:00,
2013-01-02 20:07:00,30.5,27.4,30.33,WNW,302,0.0,0.0,88,0.00,,BKN250,0.00,VWS V14.01,2013-01-03 02:07:00,
2013-01-02 20:10:00,30.4,27.5,30.33,WNW,300,0.0,0.0,89,0.00,,CLR,0.00,VWS V14.01,2013-01-03 02:10:00,
2013-01-02 20:12:00,30.4,27.5,30.33,WNW,302,0.0,0.0,89,0.00,,BKN250,0.00,VWS V14.01,2013-01-03 02:12:00,
2013-01-02 20:15:00,30.3,27.5,30.33,WNW,300,0.0,0.0,89,0.00,,CLR,0.00,VWS V14.01,2013-01-03 02:15:00,
2013-01-02 20:17:00,30.2,27.4,30.33,WNW,300,0.0,0.0,89,0.00,,BKN250,0.00,VWS V14.01,2013-01-03 02:17:00,
2013-01-02 20:20:00,30.2,27.4,30.33,WNW,300,0.0,0.0,89,0.00,,CLR,0.00,VWS V14.01,2013-01-03 02:20:00,
2013-01-02 20:22:00,30.2,27.4,30.33,WNW,300,0.0,0.0,89,0.00,,BKN250,0.00,VWS V14.01,2013-01-03 02:22:00,
2013-01-02 20:25:00,30.1,27.5,30.34,WNW,300,0.0,0.0,90,0.00,,CLR,0.00,VWS V14.01,2013-01-03 02:25:00,
2013-01-02 20:27:00,30.1,27.5,30.34,WNW,300,0.0,0.0,90,0.00,,BKN250,0.00,VWS V14.01,2013-01-03 02:27:00,
2013-01-02 20:30:00,30.1,27.3,30.33,WNW,300,0.0,0.0,89,0.00,,CLR,0.00,VWS V14.01,2013-01-03 02:30:00,
2013-01-02 20:32:00,30.0,27.2,30.33,WNW,300,0.0,0.0,89,0.00,,BKN250,0.00,VWS V14.01,2013-01-03 02:32:00,
2013-01-02 20:35:00,29.8,27.2,30.33,WNW,302,0.0,0.0,90,0.00,,CLR,0.00,VWS V14.01,2013-01-03 02:35:00,
2013-01-02 20:37:00,29.8,27.2,30.33,WNW,300,0.0,0.0,90,0.00,,BKN250,0.00,VWS V14.01,2013-01-03 02:37:00,
2013-01-02 20:40:00,29.8,27.2,30.33,WNW,300,0.0,0.0,90,0.00,,CLR,0.00,VWS V14.01,2013-01-03 02:40:00,
2013-01-02 20:42:00,29.8,27.2,30.33,WNW,300,0.0,0.0,90,0.00,,BKN250,0.00,VWS V14.01,2013-01-03 02:42:00,
2013-01-02 20:45:00,29.8,27.2,30.33,WNW,302,0.0,0.0,90,0.00,,CLR,0.00,VWS V14.01,2013-01-03 02:45:00,
2013-01-02 20:47:00,29.7,27.1,30.33,WNW,300,0.0,0.0,90,0.00,,BKN250,0.00,VWS V14.01,2013-01-03 02:47:00,
2013-01-02 20:50:00,29.6,27.0,30.33,WNW,300,0.0,0.0,90,0.00,,CLR,0.00,VWS V14.01,2013-01-03 02:50:00,
2013-01-02 20:52:00,29.5,26.9,30.33,WNW,300,0.0,0.0,90,0.00,,BKN250,0.00,VWS V14.01,2013-01-03 02:52:00,
2013-01-02 20:55:00,29.3,26.7,30.33,WNW,300,0.0,0.0,90,0.00,,CLR,0.00,VWS V14.01,2013-01-03 02:55:00,
2013-01-02 20:57:00,29.2,26.6,30.33,WNW,300,0.0,0.0,90,0.00,,BKN250,0.00,VWS V14.01,2013-01-03 02:57:00,
2013-01-02 21:00:00,29.1,26.5,30.33,WNW,300,0.0,0.0,90,0.00,,CLR,0.00,VWS V14.01,2013-01-03 03:00:00,
2013-01-02 21:02:00,29.1,26.5,30.33,WNW,300,0.0,0.0,90,0.00,,BKN250,0.00,VWS V14.01,2013-01-03 03:02:00,
2013-01-02 21:05:00,29.0,26.4,30.33,WNW,300,0.0,0.0,90,0.00,,CLR,0.00,VWS V14.01,2013-01-03 03:05:00,
2013-01-02 21:07:00,28.9,26.3,30.33,WNW,302,0.0,0.0,90,0.00,,BKN250,0.00,VWS V14.01,2013-01-03 03:07:00,
2013-01-02 21:10:00,28.8,26.2,30.33,WNW,302,0.0,0.0,90,0.00,,CLR,0.00,VWS V14.01,2013-01-03 03:10:00,
2013-01-02 21:12:00,28.7,26.1,30.33,WNW,300,0.0,0.0,90,0.00,,BKN250,0.00,VWS V14.01,2013-01-03 03:12:00,
2013-01-02 21:15:00,28.7,26.4,30.33,WNW,300,0.0,0.0,91,0.00,,CLR,0.00,VWS V14.01,2013-01-03 03:15:00,
2013-01-02 21:17:00,28.7,26.4,30.33,WNW,301,0.0,0.0,91,0.00,,BKN250,0.00,VWS V14.01,2013-01-03 03:17:00,
2013-01-02 21:20:00,28.8,26.5,30.33,WNW,302,0.0,0.0,91,0.00,,CLR,0.00,VWS V14.01,2013-01-03 03:20:00,
2013-01-02 21:22:00,28.8,26.5,30.33,WNW,300,0.0,0.0,91,0.00,,BKN250,0.00,VWS V14.01,2013-01-03 03:22:00,
2013-01-02 21:25:00,28.8,26.5,30.33,WNW,300,0.0,0.0,91,0.00,,CLR,0.00,VWS V14.01,2013-01-03 03:25:00,
2013-01-02 21:28:00,28.7,26.4,30.33,WNW,302,0.0,0.0,91,0.00,,BKN250,0.00,VWS V14.01,2013-01-03 03:28:00,
2013-01-02 21:30:00,28.6,26.3,30.33,WNW,301,0.0,0.0,91,0.00,,CLR,0.00,VWS V14.01,2013-01-03 03:30:00,
2013-01-02 21:33:00,28.4,26.1,30.33,WNW,302,0.0,0.0,91,0.00,,BKN250,0.00,VWS V14.01,2013-01-03 03:33:00,
2013-01-02 21:35:00,28.1,25.5,30.33,WNW,302,0.0,0.0,90,0.00,,CLR,0.00,VWS V14.01,2013-01-03 03:35:00,
2013-01-02 21:38:00,28.0,25.7,30.33,WNW,302,0.0,0.0,91,0.00,,BKN250,0.00,VWS V14.01,2013-01-03 03:38:00,
2013-01-02 21:40:00,27.7,25.4,30.33,WNW,302,0.0,0.0,91,0.00,,CLR,0.00,VWS V14.01,2013-01-03 03:40:00,
2013-01-02 21:43:00,27.6,25.3,30.33,WNW,302,0.0,0.0,91,0.00,,BKN250,0.00,VWS V14.01,2013-01-03 03:43:00,
2013-01-02 21:45:00,27.7,25.7,30.34,WNW,302,0.0,0.0,92,0.00,,CLR,0.00,VWS V14.01,2013-01-03 03:45:00,
2013-01-02 21:48:00,27.8,25.8,30.33,WNW,300,0.0,0.0,92,0.00,,BKN250,0.00,VWS V14.01,2013-01-03 03:48:00,
2013-01-02 21:50:00,27.8,25.8,30.33,WNW,300,0.0,0.0,92,0.00,,CLR,0.00,VWS V14.01,2013-01-03 03:50:00,
2013-01-02 21:53:00,27.8,25.8,30.34,WNW,302,0.0,0.0,92,0.00,,BKN250,0.00,VWS V14.01,2013-01-03 03:53:00,
2013-01-02 21:55:00,27.9,25.9,30.34,WNW,302,0.0,0.0,92,0.00,,CLR,0.00,VWS V14.01,2013-01-03 03:55:00,
2013-01-02 21:58:00,27.8,25.8,30.33,WNW,300,0.0,0.0,92,0.00,,BKN250,0.00,VWS V14.01,2013-01-03 03:58:00,
2013-01-02 22:00:00,27.8,25.8,30.33,WNW,302,0.0,0.0,92,0.00,,CLR,0.00,VWS V14.01,2013-01-03 04:00:00,
2013-01-02 22:03:00,27.7,25.7,30.33,WNW,302,0.0,0.0,92,0.00,,SCT250,0.00,VWS V14.01,2013-01-03 04:03:00,
2013-01-02 22:05:00,27.8,26.0,30.34,WNW,302,0.0,0.0,93,0.00,,CLR,0.00,VWS V14.01,2013-01-03 04:05:00,
2013-01-02 22:08:00,27.7,25.7,30.34,WNW,300,0.0,0.0,92,0.00,,SCT250,0.00,VWS V14.01,2013-01-03 04:08:00,
2013-01-02 22:10:00,27.6,25.6,30.34,WNW,300,0.0,0.0,92,0.00,,CLR,0.00,VWS V14.01,2013-01-03 04:10:00,
2013-01-02 22:13:00,27.4,25.4,30.34,WNW,301,0.0,0.0,92,0.00,,SCT250,0.00,VWS V14.01,2013-01-03 04:13:00,
2013-01-02 22:15:00,27.3,25.3,30.34,WNW,302,0.0,0.0,92,0.00,,CLR,0.00,VWS V14.01,2013-01-03 04:15:00,
2013-01-02 22:18:00,27.3,25.3,30.34,WNW,302,0.0,0.0,92,0.00,,SCT250,0.00,VWS V14.01,2013-01-03 04:18:00,
2013-01-02 22:20:00,27.3,25.5,30.34,WNW,302,0.0,0.0,93,0.00,,CLR,0.00,VWS V14.01,2013-01-03 04:20:00,
2013-01-02 22:23:00,27.2,25.2,30.34,WNW,302,0.0,0.0,92,0.00,,SCT250,0.00,VWS V14.01,2013-01-03 04:23:00,
2013-01-02 22:25:00,27.1,25.1,30.34,WNW,300,0.0,0.0,92,0.00,,CLR,0.00,VWS V14.01,2013-01-03 04:25:00,
2013-01-02 22:28:00,27.1,25.4,30.34,WNW,302,0.0,0.0,93,0.00,,SCT250,0.00,VWS V14.01,2013-01-03 04:28:00,
2013-01-02 22:30:00,27.0,25.2,30.34,WNW,301,0.0,0.0,93,0.00,,CLR,0.00,VWS V14.01,2013-01-03 04:30:00,
2013-01-02 22:33:00,27.0,25.2,30.34,WNW,302,0.0,0.0,93,0.00,,SCT250,0.00,VWS V14.01,2013-01-03 04:33:00,
2013-01-02 22:35:00,26.9,25.1,30.34,WNW,302,0.0,0.0,93,0.00,,CLR,0.00,VWS V14.01,2013-01-03 04:35:00,
2013-01-02 22:38:00,26.9,25.1,30.34,WNW,302,0.0,0.0,93,0.00,,SCT250,0.00,VWS V14.01,2013-01-03 04:38:00,
2013-01-02 22:40:00,26.9,25.1,30.34,WNW,302,0.0,0.0,93,0.00,,CLR,0.00,VWS V14.01,2013-01-03 04:40:00,
2013-01-02 22:43:00,26.9,25.1,30.34,WNW,302,0.0,0.0,93,0.00,,SCT250,0.00,VWS V14.01,2013-01-03 04:43:00,
2013-01-02 22:45:00,26.8,25.0,30.34,WNW,302,0.0,0.0,93,0.00,,CLR,0.00,VWS V14.01,2013-01-03 04:45:00,
2013-01-02 22:48:00,26.8,25.0,30.34,WNW,302,0.0,0.0,93,0.00,,SCT250,0.00,VWS V14.01,2013-01-03 04:48:00,
2013-01-02 22:50:00,26.8,25.0,30.34,WNW,302,0.0,0.0,93,0.00,,CLR,0.00,VWS V14.01,2013-01-03 04:50:00,
2013-01-02 22:53:00,26.7,25.0,30.34,WNW,302,0.0,0.0,93,0.00,,SCT250,0.00,VWS V14.01,2013-01-03 04:53:00,
2013-01-02 22:55:00,26.7,25.0,30.34,WNW,302,0.0,0.0,93,0.00,,CLR,0.00,VWS V14.01,2013-01-03 04:55:00,
2013-01-02 22:58:00,26.6,24.9,30.34,WNW,302,0.0,0.0,93,0.00,,SCT250,0.00,VWS V14.01,2013-01-03 04:58:00,
2013-01-02 23:00:00,26.6,24.9,30.34,WNW,302,0.0,0.0,93,0.00,,SCT250,0.00,VWS V14.01,2013-01-03 05:00:00,
2013-01-02 23:01:00,26.6,24.9,30.34,WNW,302,0.0,0.0,93,0.00,,SCT250,0.00,VWS V14.01,2013-01-03 05:01:00,
2013-01-02 23:03:00,26.6,24.9,30.34,WNW,302,0.0,0.0,93,0.00,,SCT250,0.00,VWS V14.01,2013-01-03 05:03:00,
2013-01-02 23:05:00,26.5,24.8,30.34,WNW,302,0.0,0.0,93,0.00,,CLR,0.00,VWS V14.01,2013-01-03 05:05:00,
2013-01-02 23:08:00,26.4,24.6,30.35,WNW,302,0.0,0.0,93,0.00,,SCT250,0.00,VWS V14.01,2013-01-03 05:08:00,
2013-01-02 23:10:00,26.3,24.6,30.35,WNW,302,0.0,0.0,93,0.00,,CLR,0.00,VWS V14.01,2013-01-03 05:10:00,
2013-01-02 23:13:00,26.2,24.5,30.35,WNW,302,0.0,0.0,93,0.00,,SCT250,0.00,VWS V14.01,2013-01-03 05:13:00,
2013-01-02 23:15:00,26.2,24.5,30.35,WNW,302,0.0,0.0,93,0.00,,CLR,0.00,VWS V14.01,2013-01-03 05:15:00,
2013-01-02 23:18:00,26.2,24.7,30.35,WNW,302,0.0,0.0,94,0.00,,SCT250,0.00,VWS V14.01,2013-01-03 05:18:00,
2013-01-02 23:20:00,26.3,24.8,30.35,WNW,301,0.0,0.0,94,0.00,,CLR,0.00,VWS V14.01,2013-01-03 05:20:00,
2013-01-02 23:23:00,26.2,24.7,30.35,WNW,302,0.0,0.0,94,0.00,,SCT250,0.00,VWS V14.01,2013-01-03 05:23:00,
2013-01-02 23:25:00,26.1,24.4,30.35,WNW,302,0.0,0.0,93,0.00,,CLR,0.00,VWS V14.01,2013-01-03 05:25:00,
2013-01-02 23:28:00,25.9,24.2,30.35,WNW,302,0.0,0.0,93,0.00,,SCT250,0.00,VWS V14.01,2013-01-03 05:28:00,
2013-01-02 23:30:00,25.9,24.2,30.35,WNW,302,0.0,0.0,93,0.00,,CLR,0.00,VWS V14.01,2013-01-03 05:30:00,
2013-01-02 23:33:00,25.8,24.1,30.35,WNW,302,0.0,0.0,93,0.00,,SCT250,0.00,VWS V14.01,2013-01-03 05:33:00,
2013-01-02 23:35:00,25.7,24.0,30.35,WNW,302,0.0,0.0,93,0.00,,CLR,0.00,VWS V14.01,2013-01-03 05:35:00,
2013-01-02 23:38:00,25.7,24.0,30.35,WNW,302,0.0,0.0,93,0.00,,SCT250,0.00,VWS V14.01,2013-01-03 05:38:00,
2013-01-02 23:40:00,25.5,23.8,30.35,WNW,302,0.0,0.0,93,0.00,,CLR,0.00,VWS V14.01,2013-01-03 05:40:00,
2013-01-02 23:43:00,25.6,23.9,30.35,WNW,301,0.0,0.0,93,0.00,,SCT250,0.00,VWS V14.01,2013-01-03 05:43:00,
2013-01-02 23:45:00,25.6,24.1,30.35,WNW,302,0.0,0.0,94,0.00,,CLR,0.00,VWS V14.01,2013-01-03 05:45:00,
2013-01-02 23:48:00,25.6,24.1,30.35,WNW,302,0.0,0.0,94,0.00,,SCT250,0.00,VWS V14.01,2013-01-03 05:48:00,
2013-01-02 23:50:00,25.6,24.1,30.35,WNW,302,0.0,0.0,94,0.00,,CLR,0.00,VWS V14.01,2013-01-03 05:50:00,
2013-01-02 23:53:00,25.6,24.1,30.35,WNW,302,0.0,0.0,94,0.00,,SCT250,0.00,VWS V14.01,2013-01-03 05:53:00,
2013-01-02 23:55:00,25.6,24.1,30.35,WNW,301,0.0,0.0,94,0.00,,CLR,0.00,VWS V14.01,2013-01-03 05:55:00,
2013-01-02 23:58:00,25.6,24.1,30.36,WNW,302,0.0,0.0,94,0.00,,SCT250,0.00,VWS V14.01,2013-01-03 05:58:00,